• In Italy
  • List of Countries
  • For 7 days
  • Water Temperature
  • Satellite Maps
  • Weather Map
  • Weather Widgets
  • user-avatar
    Login

    Hourly Weather Truto

    Today, 23 September, Sunday

    Time Temperature Precipitation Wind Pressure Humidity
    00:00 +10°C° 0 mm 5 mps 757 mmHg 96%
    01:00 +10°C° 0 mm 5 mps 757 mmHg 96%
    02:00 +10°C° 0 mm 5 mps 757 mmHg 96%
    03:00 +11°C° 0 mm 4 mps 757 mmHg 97%
    04:00 +10°C° 0.1 mm 5 mps 757 mmHg 96%
    05:00 +10°C° 0.1 mm 6 mps 757 mmHg 96%
    06:00 +10°C° 0 mm 8 mps 757 mmHg 96%
    07:00 +10°C° 0.4 mm 9 mps 759 mmHg 94%
    08:00 +8°C° 0.4 mm 10 mps 760 mmHg 93%
    09:00 +8°C° 0.4 mm 11 mps 761 mmHg 92%
    10:00 +9°C° 0 mm 10 mps 762 mmHg 85%
    11:00 +11°C° 0 mm 10 mps 763 mmHg 77%
    12:00 +12°C° 0 mm 10 mps 765 mmHg 70%
    13:00 +12°C° 0 mm 10 mps 765 mmHg 69%
    14:00 +12°C° 0 mm 10 mps 766 mmHg 67%
    15:00 +12°C° 0 mm 10 mps 767 mmHg 65%
    16:00 +11°C° 0 mm 9 mps 768 mmHg 68%
    17:00 +10°C° 0 mm 9 mps 768 mmHg 70%
    18:00 +8°C° 0 mm 9 mps 769 mmHg 72%
    19:00 +9°C° 0 mm 8 mps 770 mmHg 73%
    20:00 +7°C° 0 mm 8 mps 771 mmHg 73%
    21:00 +8°C° 0 mm 7 mps 772 mmHg 73%
    22:00 +8°C° 0 mm 7 mps 772 mmHg 76%
    23:00 +7°C° 0 mm 6 mps 773 mmHg 79%

    Tomorrow, 24 September, Monday

    Time Temperature Precipitation Wind Pressure Humidity
    00:00 +7°C° 0 mm 6 mps 773 mmHg 81%
    01:00 +7°C° 0 mm 5 mps 773 mmHg 83%
    02:00 +7°C° 0 mm 5 mps 774 mmHg 85%
    03:00 +6°C° 0 mm 4 mps 774 mmHg 86%
    04:00 +6°C° 0 mm 4 mps 774 mmHg 87%
    05:00 +6°C° 0 mm 4 mps 774 mmHg 88%
    06:00 +6°C° 0 mm 4 mps 775 mmHg 89%
    07:00 +7°C° 0 mm 4 mps 775 mmHg 84%
    08:00 +10°C° 0 mm 4 mps 775 mmHg 79%
    09:00 +12°C° 0 mm 3 mps 776 mmHg 73%
    10:00 +13°C° 0 mm 3 mps 776 mmHg 69%
    11:00 +13°C° 0 mm 3 mps 776 mmHg 64%
    12:00 +14°C° 0 mm 3 mps 776 mmHg 60%
    13:00 +14°C° 0 mm 3 mps 776 mmHg 60%
    14:00 +14°C° 0 mm 3 mps 776 mmHg 61%
    15:00 +14°C° 0 mm 3 mps 776 mmHg 61%
    16:00 +13°C° 0 mm 3 mps 775 mmHg 66%
    17:00 +12°C° 0 mm 3 mps 775 mmHg 71%
    18:00 +11°C° 0 mm 3 mps 775 mmHg 76%
    19:00 +10°C° 0 mm 3 mps 775 mmHg 80%
    20:00 +9°C° 0 mm 3 mps 776 mmHg 84%
    21:00 +8°C° 0 mm 3 mps 776 mmHg 88%
    22:00 +8°C° 0 mm 3 mps 775 mmHg 86%
    23:00 +6°C° 0 mm 4 mps 775 mmHg 84%

    Day after tomorrow, 25 September, Tuesday

    Time Temperature Precipitation Wind Pressure Humidity
    00:00 +6°C° 0 mm 4 mps 775 mmHg 82%
    01:00 +6°C° 0 mm 4 mps 775 mmHg 81%
    02:00 +7°C° 0 mm 3 mps 774 mmHg 80%
    03:00 +7°C° 0 mm 3 mps 774 mmHg 79%
    04:00 +7°C° 0 mm 3 mps 774 mmHg 81%
    05:00 +7°C° 0 mm 3 mps 774 mmHg 83%
    06:00 +6°C° 0 mm 4 mps 774 mmHg 85%
    07:00 +8°C° 0 mm 4 mps 774 mmHg 80%
    08:00 +11°C° 0 mm 4 mps 774 mmHg 75%
    09:00 +13°C° 0 mm 4 mps 774 mmHg 70%
    10:00 +14°C° 0 mm 5 mps 774 mmHg 69%
    11:00 +15°C° 0 mm 5 mps 774 mmHg 68%
    12:00 +15°C° 0 mm 5 mps 773 mmHg 66%
    13:00 +15°C° 0 mm 5 mps 773 mmHg 67%
    14:00 +15°C° 0 mm 5 mps 773 mmHg 68%
    15:00 +15°C° 0 mm 4 mps 772 mmHg 68%
    16:00 +13°C° 0 mm 4 mps 772 mmHg 73%
    17:00 +12°C° 0 mm 3 mps 772 mmHg 78%
    18:00 +11°C° 0 mm 3 mps 772 mmHg 82%
    19:00 +10°C° 0 mm 3 mps 772 mmHg 84%
    20:00 +10°C° 0 mm 3 mps 772 mmHg 85%
    21:00 +9°C° 0 mm 3 mps 772 mmHg 87%
    22:00 +9°C° 0 mm 3 mps 772 mmHg 86%
    23:00 +9°C° 0 mm 3 mps 772 mmHg 86%

    26 September, Wednesday

    Time Temperature Precipitation Wind Pressure Humidity
    00:00 +9°C° 0 mm 3 mps 771 mmHg 85%
    01:00 +9°C° 0 mm 3 mps 771 mmHg 85%
    02:00 +9°C° 0 mm 3 mps 771 mmHg 86%
    03:00 +9°C° 0 mm 3 mps 771 mmHg 86%
    04:00 +9°C° 0 mm 2 mps 770 mmHg 85%
    05:00 +8°C° 0 mm 2 mps 770 mmHg 85%
    06:00 +8°C° 0 mm 2 mps 770 mmHg 85%
    07:00 +10°C° 0 mm 2 mps 770 mmHg 78%
    08:00 +13°C° 0 mm 2 mps 770 mmHg 71%
    09:00 +15°C° 0 mm 2 mps 770 mmHg 64%
    10:00 +16°C° 0 mm 2 mps 770 mmHg 60%
    11:00 +17°C° 0 mm 2 mps 770 mmHg 56%
    12:00 +18°C° 0 mm 2 mps 770 mmHg 52%
    13:00 +19°C° 0 mm 2 mps 770 mmHg 53%
    14:00 +19°C° 0 mm 2 mps 770 mmHg 54%
    15:00 +19°C° 0 mm 2 mps 769 mmHg 55%
    16:00 +17°C° 0 mm 2 mps 769 mmHg 63%
    17:00 +15°C° 0 mm 2 mps 769 mmHg 71%
    18:00 +13°C° 0 mm 2 mps 769 mmHg 78%
    19:00 +13°C° 0 mm 2 mps 769 mmHg 80%
    20:00 +12°C° 0 mm 2 mps 769 mmHg 82%
    21:00 +12°C° 0 mm 2 mps 769 mmHg 83%
    22:00 +10°C° 0 mm 3 mps 769 mmHg 83%
    23:00 +10°C° 0 mm 3 mps 769 mmHg 83%

    27 September, Thursday

    Time Temperature Precipitation Wind Pressure Humidity
    00:00 +10°C° 0 mm 3 mps 768 mmHg 82%
    01:00 +10°C° 0 mm 3 mps 768 mmHg 79%
    02:00 +10°C° 0 mm 3 mps 768 mmHg 75%
    03:00 +10°C° 0 mm 3 mps 767 mmHg 71%
    04:00 +10°C° 0 mm 3 mps 767 mmHg 70%
    05:00 +10°C° 0 mm 4 mps 767 mmHg 69%
    06:00 +8°C° 0 mm 4 mps 767 mmHg 68%
    07:00 +11°C° 0 mm 4 mps 766 mmHg 69%
    08:00 +13°C° 0 mm 4 mps 766 mmHg 70%
    09:00 +15°C° 0 mm 4 mps 766 mmHg 71%
    10:00 +18°C° 0 mm 3 mps 766 mmHg 69%
    11:00 +19°C° 0 mm 3 mps 766 mmHg 66%
    12:00 +20°C° 0 mm 2 mps 766 mmHg 64%
    13:00 +20°C° 0 mm 2 mps 765 mmHg 64%
    14:00 +22°C° 0 mm 1 mps 765 mmHg 64%
    15:00 +22°C° 0 mm 1 mps 765 mmHg 64%
    16:00 +20°C° 0 mm 1 mps 765 mmHg 72%
    17:00 +17°C° 0 mm 2 mps 764 mmHg 79%
    18:00 +14°C° 0 mm 3 mps 764 mmHg 87%
    19:00 +13°C° 0 mm 3 mps 765 mmHg 86%
    20:00 +12°C° 0 mm 3 mps 765 mmHg 85%
    21:00 +11°C° 0 mm 3 mps 765 mmHg 84%
    22:00 +11°C° 0 mm 3 mps 765 mmHg 81%
    23:00 +11°C° 0 mm 3 mps 765 mmHg 78%

    28 September, Friday

    Time Temperature Precipitation Wind Pressure Humidity
    00:00 +10°C° 0 mm 4 mps 764 mmHg 75%
    01:00 +10°C° 0 mm 4 mps 764 mmHg 77%
    02:00 +10°C° 0 mm 4 mps 764 mmHg 79%
    03:00 +8°C° 0 mm 4 mps 764 mmHg 81%
    04:00 +8°C° 0 mm 4 mps 764 mmHg 83%
    05:00 +8°C° 0 mm 4 mps 764 mmHg 85%
    06:00 +8°C° 0 mm 4 mps 764 mmHg 87%
    07:00 +9°C° 0 mm 5 mps 764 mmHg 82%
    08:00 +12°C° 0 mm 5 mps 765 mmHg 78%
    09:00 +13°C° 0 mm 6 mps 765 mmHg 73%
    10:00 +14°C° 0 mm 6 mps 765 mmHg 74%
    11:00 +15°C° 0 mm 7 mps 765 mmHg 74%
    12:00 +15°C° 0 mm 7 mps 766 mmHg 74%
    13:00 +15°C° 0 mm 7 mps 766 mmHg 77%
    14:00 +14°C° 0 mm 7 mps 765 mmHg 81%
    15:00 +13°C° 0 mm 8 mps 765 mmHg 84%
    16:00 +12°C° 0 mm 8 mps 766 mmHg 85%
    17:00 +12°C° 0 mm 8 mps 766 mmHg 85%
    18:00 +11°C° 0 mm 9 mps 766 mmHg 85%
    19:00 +11°C° 0 mm 9 mps 767 mmHg 84%
    20:00 +10°C° 0 mm 9 mps 767 mmHg 83%
    21:00 +8°C° 0 mm 9 mps 768 mmHg 82%
    22:00 +8°C° 0 mm 9 mps 768 mmHg 81%
    23:00 +7°C° 0 mm 9 mps 768 mmHg 81%
    Show more